SL-16 DEB, 22612

Orbit data source: Space-Track

SL-16 DEB, 22612 is space debris in LEO originally from a launch on Fri, 26 Mar 1993 UTC launched from the Tyuratam Missile And Space Complex (TTMTR). Debris objects in space refer to the collection of defunct objects orbiting the Earth. Examples of debris include non-operational satellites, rocket bodies, and fragments generated from explosions, collisions, or faulty payload assembly.

Loading next visibility...
Identifier
22612, 1993-016W
Orbit
LEO
Country
Flag of CISCIS
Related business
Manufacturer
Unknown
Mission
Spacecraft
Bus & Motor
Unknown
Mass
Unknown
Launch date (UTC)
1993-03-26 (33 years ago)
Launch vehicle
Unknown
Launch site
Tyuratam Missile And Space Complex (TTMTR)
Object type
Payload
Rocket body
Debris
Shape & HBR
Unknown shape, 0.1 m
Radar Cross Section
Small (<0.1 m²)

Expand to show TLE details & history
Last TLE update: 22 hours ago

TLE from 22 hours ago
0 SL-16 DEB
1 22612U 93016W   25288.66787219  .00008317  00000-0  26132-2 0  9998
2 22612  70.9738  97.0638 0064638 280.2673 213.7655 14.39517384671869
Epoch: 2025-10-15T16:01Z
TLE epoch observation values (Epoch: 2025-10-15T16:01:44.157Z)
Latitude
43.28539°
Longitude
-6.65767°
Altitude
804.434 km
Speed
7.435 km/s
True Right ascension
17h 12m 51s
True Declination
43° 06' 54"
Sunlit
Object was in daylight at epoch
Visualization orbit readout
Latitude
Unknown
Longitude
Unknown
Altitude
Unknown
Speed
Unknown
Apparent Right ascension
Unknown
Apparent Declination
Unknown
Sunlit
N/A
Visualization observer readout
Local Sidereal Time
08:54:01
Azimuth
Unknown
Elevation
Unknown
Doppler factor
Unknown
Orbital elements
Apogee altitude
804.123 km
Perigee altitude
711.87 km
Semi-major axis
7,136.134 km
Eccentricity
0.00646
Inclination
70.9738°
RAAN
97.0638°
Arg. of periapsis
280.2673°
True anomaly
213.35658°
Mean anomaly
213.7655°
Eccentric anomaly
213.56076°
Mean motion
3.60038 °/min
Orbital period
99.99 mins
BSTAR
0.0026132
Loading maneuver chart data...
Computing Atmospheric mass density...
Loading historical data...
Loading historical data...
Loading historical data...
Loading historical data...
Loading historical data...
Loading historical data...
Loading historical data...

Documentation

Showing up to 5 results
|